Regional Weather Roundup
Issued by NWS Northern Indiana

Home | Current Version | Previous Version | Graphics & Text | Print | Product List | Glossary On
Versions: 1 2 3 4 5 6 7 8 9 10 11 12 13 14 15 16 17 18 19 20 21 22 23 24 25 26 27 28 29 30 31 32 33 34 35 36 37 38 39 40 41 42 43 44 45 46 47 48 49 50
000
ASUS43 KIWX 290300
RWRIWX

KIWX WEATHER ROUNDUP
NATIONAL WEATHER SERVICE NORTHERN INDIANA
1100 PM EDT SAT MAR 28 2015

NOTE: "FAIR" INDICATES FEW OR NO CLOUDS BELOW 12,000 FEET WITH NO
SIGNIFICANT WEATHER AND/OR OBSTRUCTIONS TO VISIBILITY.

* THESE STATIONS ARE NOT UNDER NWS QUALITY CONTROL. THEY ALSO MAY NOT
  REPORT WEATHER SUCH AS PRECIPITATION OR FOG.

INZ001>027-290400-
NORTHERN INDIANA

CITY           SKY/WX    TMP DP  RH WIND       PRES   REMARKS
GARY*          CLEAR     27   9  46 SE6       30.33R WCI  20
KNOX*            N/A     23  10  58 CALM      30.32S
SOUTH BEND     CLEAR     24  13  62 CALM      30.32S
GOSHEN         CLEAR     27  16  63 NW3       30.31R
MONTICELLO*    CLEAR     30  17  56 CALM      30.32R
WARSAW*        CLEAR     25  14  63 CALM      30.31S
ANGOLA*        CLEAR     25  16  68 CALM      30.29R
FORT WAYNE     CLEAR     26  19  74 SW6       30.32S WCI  19

$$
INZ028>050-290400-
CENTRAL INDIANA

CITY           SKY/WX    TMP DP  RH WIND       PRES   REMARKS
LAFAYETTE      CLEAR     28  13  53 CALM      30.33R
KOKOMO*          N/A     27  19  74 S5        30.33R WCI  21
MUNCIE*        FAIR      28  13  53 S3        30.33R
INDIANAPOLIS   FAIR      31  12  45 E5        30.32R WCI  26

$$
MIZ043>046-050>051-056>058-064>065-071>073-077>080-290400-
SOUTHWEST LOWER MICHIGAN

CITY           SKY/WX    TMP DP  RH WIND       PRES   REMARKS
BATTLE CREEK   CLEAR     25  10  53 W5        30.30R WCI  19
BENTON HARBOR  CLEAR     17  11  77 CALM      30.31S
COLDWATER*     CLEAR     26  10  50 CALM      30.30R
HILLSDALE*     CLEAR     27   7  43 CALM      30.27S
HOLLAND        CLEAR     22  13  68 SE3       30.30F
GRAND RAPIDS   CLEAR     23  10  57 SW6       30.30R WCI  16
KALAMAZOO      CLEAR     26  11  52 W3        30.30R
STURGIS*       CLEAR     25  12  58 CALM      30.30R
THREE RIVERS*  FAIR      25  14  63 CALM      30.32R

$$
OHZ001>008-015>018-024>025-290400-
NORTHWEST OHIO

CITY           SKY/WX    TMP DP  RH WIND       PRES   REMARKS
DEFIANCE       CLEAR     26  15  63 S3        30.32R
FINDLAY        CLEAR     25  17  72 SW6       30.31R WCI  18
TOLEDO EXPRESS CLEAR     26  13  57 SW3       30.31R
TOLEDO METCALF CLEAR     26  14  60 SW7       30.32R WCI  18
LIMA           CLEAR     28  16  60 S5        30.32R WCI  23

$$
AND FOR LAKE MICHIGAN COASTAL AND OPEN LAKE BUOY OBSERVATIONS

STATION/POSITION TEMP    WIND        PRES    VSBY  WAVE
                 AIR SEA DIR/SP/G                  HT/PER
                 (F)     (DEG/KT/KT) (MB)    (MI)  (FT/S)
CALUMET HARBOR    30     100/  6/  8 1025.1R
MICHIGAN CITY     26      80/  5/  5   N/A
BURNS HARBOR      26     110/  5/  6 1027.1S
SAINT JOSEPH      23      CALM  /  1 1027.1R

$$
&&


USA.gov is the U.S. government's official web portal to all federal, state and local government web resources and services.